Wind_Speed
9 16 10 18 26 19 21 14 17 29 32 24 21 18 22 25 21 25 23 22 23 23 22 22 20 19 18 17 17 15 13 9 9 6 6 8 10 11 9 6 4 4 4
7 15 20 23 32 36 38 25 29 31 33 26 22 23 20 17 18 20 21 25 24 25 27 28 21 21 21 20 20 18 11 9 9 4 0 2 5 3 2 1 1 1 2
10 8 11 16 25 31 34 41 36 35 34 26 24 21 19 23 23 19 21 27 24 23 24 28 24 22 22 23 20 19 14 11 9 7 4 1 3 2 3 1 2 2 3
2 4 6 7 11 21 34 39 34 37 36 30 25 24 24 16 22 25 26 18 20 20 22 24 22 21 20 16 12 11 11 8 7 6 8 13 9 4 3 1 2 3 4
3 4 4 6 5 4 14 24 29 34 33 37 36 37 29 26 34 32 27 19 19 18 15 20 21 16 11 6 6 8 9 7 5 6 6 6 7 6 8 5 5 4 4
5 4 2 5 6 6 9 11 15 21 21 23 25 26 26 28 25 29 27 26 21 20 16 14 14 11 6 2 2 2 3 2 5 6 6 7 4 3 5 6 6 7 5
5 3 4 5 7 6 8 12 14 16 14 15 18 18 19 16 18 23 22 23 22 21 19 16 15 16 12 7 3 2 2 4 5 6 6 8 9 9 7 6 6 6 4
1 2 4 8 11 9 8 9 13 14 12 11 13 13 13 12 14 17 19 22 25 24 23 20 16 15 15 15 8 10 8 7 7 6 6 7 8 8 9 5 4 5 7
6 6 5 5 7 9 10 10 10 12 12 11 10 9 9 10 12 14 16 21 22 23 22 20 21 16 12 9 7 9 11 11 9 7 6 5 6 8 8 9 8 6 4
5 5 5 6 6 6 6 6 8 9 11 12 11 10 9 8 8 12 16 19 22 24 23 19 15 13 11 9 10 9 8 7 7 6 7 7 6 8 7 8 8 11 11
4 4 4 10 9 6 4 3 3 6 9 9 10 9 8 9 10 12 16 22 24 22 20 17 16 14 14 12 8 6 5 5 5 5 6 5 6 7 6 6 7 9 9
6 5 7 10 11 11 7 3 3 5 7 9 9 10 11 12 15 18 20 21 22 20 19 18 17 15 12 8 7 7 6 6 5 6 5 3 5 6 4 5 7 8 7
6 5 6 7 10 11 8 5 1 4 7 9 9 11 12 14 15 16 18 20 21 20 18 17 15 13 10 10 8 7 6 5 4 4 3 4 6 5 5 8 7 9 7
5 4 4 6 8 9 11 10 7 5 6 8 10 12 13 14 16 18 20 21 20 20 18 15 14 13 11 9 8 6 4 3 3 4 3 3 5 6 7 9 9 9 8
7 7 6 5 8 8 8 9 11 11 10 11 13 15 15 16 18 20 21 21 19 16 17 18 15 12 10 8 7 4 0 2 5 4 3 4 6 7 7 9 8 8 7
7 7 7 10 11 13 11 9 8 12 14 17 19 18 18 18 19 20 21 21 19 18 15 13 13 12 8 6 6 4 1 2 5 6 6 6 6 5 4 4 5 6 8
6 8 7 9 14 18 18 17 16 12 13 21 24 25 25 24 24 24 23 22 22 20 18 17 16 12 11 10 7 5 2 4 7 8 8 7 5 4 5 2 3 3 6
11 11 13 17 19 22 21 18 18 17 16 18 25 27 30 31 30 29 29 26 24 23 22 20 16 14 13 11 8 7 6 5 6 8 8 7 6 5 5 4 2 1 2
13 16 20 22 24 26 25 17 18 18 18 20 23 29 31 33 32 32 30 28 25 23 21 18 15 14 12 10 9 7 6 7 7 9 9 8 7 7 7 6 5 4 4
23 22 25 25 26 30 25 21 22 18 20 24 25 26 31 33 34 33 32 29 26 23 19 16 14 13 12 11 10 9 8 9 10 10 10 9 8 8 9 7 7 6 6
25 27 26 26 27 32 30 25 23 22 24 20 20 22 27 32 33 33 31 28 24 21 19 16 14 13 13 12 12 14 12 12 14 13 13 12 10 9 9 6 7 7 8
24 25 26 27 29 31 28 25 24 30 22 19 18 22 26 31 33 31 29 26 25 22 20 16 14 14 13 12 14 14 13 12 14 14 12 11 11 11 10 8 6 7 8
24 26 26 28 30 28 28 25 34 30 23 16 19 22 25 29 30 30 30 29 27 24 19 16 16 17 16 15 14 15 14 12 12 10 10 10 11 11 10 10 7 10 10
24 26 28 26 25 25 30 30 32 28 23 17 18 20 24 27 29 30 32 31 27 23 22 18 18 18 18 19 18 17 16 15 12 10 9 10 11 12 12 12 11 12 11
26 27 25 25 30 28 30 32 24 20 18 14 16 19 20 24 25 24 30 29 29 29 27 23 21 20 20 22 20 21 21 21 19 15 13 13 13 13 14 14 14 13 12
28 28 27 29 30 30 27 25 14 13 15 13 16 18 19 20 23 24 19 20 21 20 18 15 16 15 13 13 16 17 18 19 20 19 18 16 16 15 16 16 15 15 14
Wind_Direction
149 160 233 187 180 191 198 178 174 201 220 233 219 219 218 226 236 232 229 232 237 236 235 235 230 224 215 214 212 217 220 227 244 258 289 292 291 298 300 311 330 4 353
121 180 188 199 184 191 205 198 226 218 226 223 220 222 227 232 248 244 246 247 245 243 237 239 226 222 220 216 216 212 209 225 214 228 171 296 302 323 94 118 133 78 60
141 151 174 177 185 188 196 211 223 226 235 224 216 220 225 239 246 256 255 253 253 248 240 242 231 220 221 222 217 219 219 225 222 231 226 242 235 293 249 216 196 204 185
138 124 144 159 204 185 198 209 209 218 228 227 238 229 230 239 257 273 279 264 250 245 242 236 235 226 217 223 225 225 232 225 225 245 251 252 255 248 256 191 189 175 192
189 189 168 165 202 214 209 215 220 224 229 225 230 240 226 219 235 245 253 265 248 242 243 231 207 203 165 202 237 239 236 243 300 254 237 251 259 247 249 271 220 234 228
245 254 266 190 197 210 210 210 218 228 229 228 230 234 241 236 223 237 241 244 229 219 208 183 162 131 142 114 273 245 299 285 221 246 243 223 211 221 231 248 253 255 243
233 269 306 293 264 239 225 220 221 224 228 229 228 231 235 233 235 228 222 210 190 177 167 153 137 120 99 107 244 40 320 280 263 237 252 252 243 238 236 252 274 267 238
9 8 346 312 297 289 270 236 228 232 231 231 232 231 231 230 227 223 217 212 198 184 169 161 164 167 168 192 213 255 240 255 251 244 234 245 248 235 231 229 247 273 252
55 54 33 2 331 303 282 254 236 225 222 222 219 226 226 227 223 218 212 209 199 182 176 176 176 180 189 196 189 207 217 215 212 224 234 238 254 251 242 243 238 240 267
47 19 5 9 11 349 326 267 238 230 208 196 195 197 194 199 208 211 207 201 191 181 177 178 180 182 180 176 180 193 215 235 238 222 234 220 240 251 251 255 251 243 248
30 15 357 359 5 33 31 327 240 212 201 192 190 195 194 193 190 194 193 187 183 184 184 184 175 171 173 174 177 197 219 237 250 255 240 231 236 243 238 259 258 252 243
350 346 356 358 3 5 18 82 161 198 205 203 196 194 194 188 184 181 178 180 183 183 177 173 174 175 177 182 194 197 211 223 226 232 237 231 231 237 268 255 255 252 246
346 332 338 345 343 346 353 341 261 197 200 197 196 193 191 190 189 189 187 182 175 174 173 177 183 187 182 178 184 192 193 196 220 230 222 211 216 236 255 264 259 264 254
327 343 348 333 329 328 328 322 306 271 236 216 209 208 200 195 189 184 181 181 181 179 182 185 185 182 182 181 177 178 192 189 191 189 175 191 231 252 259 258 259 257 258
340 350 352 348 351 342 323 311 294 282 262 240 227 220 211 204 198 192 187 183 184 188 182 177 176 178 179 176 179 163 57 215 202 217 231 228 241 245 248 251 253 250 244
350 349 347 344 339 338 331 309 284 265 251 241 238 231 221 212 207 200 193 192 189 185 189 187 186 178 174 175 167 150 129 242 224 215 217 218 228 229 239 248 253 247 236
338 335 324 312 317 323 323 317 315 303 252 237 233 223 218 213 208 204 198 193 189 186 186 187 187 178 181 183 175 161 145 206 218 216 216 211 211 213 203 199 218 228 224
332 328 321 316 312 314 312 315 310 298 279 253 237 222 211 206 202 198 196 192 191 187 184 187 189 182 181 179 175 181 195 205 217 216 217 220 221 213 212 215 206 215 214
289 290 303 309 313 308 307 302 300 298 287 269 249 232 218 208 200 197 196 196 191 187 187 191 188 186 183 187 184 187 199 206 214 221 222 222 220 216 219 211 195 164 126
311 310 312 311 311 310 308 296 290 288 282 275 263 243 225 215 204 203 198 197 195 190 186 188 193 192 191 193 191 207 206 204 209 216 219 218 213 202 201 209 196 179 169
306 307 309 304 304 311 311 291 284 274 288 289 273 250 229 219 213 205 200 195 189 189 187 190 189 192 197 200 199 213 215 215 208 213 217 212 204 194 193 217 200 192 186
311 309 306 297 299 303 305 288 276 284 290 286 261 241 226 213 210 203 197 191 188 186 186 186 187 195 203 208 204 206 223 219 209 209 210 205 194 196 192 202 191 186 194
303 301 296 290 287 291 297 284 283 284 288 277 249 232 220 209 204 197 191 187 190 189 183 182 191 201 207 208 209 204 213 209 207 210 203 207 198 191 197 210 199 183 198
309 304 300 290 283 291 292 287 287 282 279 258 239 223 207 198 198 196 194 187 186 187 187 191 197 205 209 208 207 209 205 211 212 203 202 209 203 202 205 205 200 208 208
308 306 295 304 294 288 285 285 277 270 259 241 227 206 190 181 180 187 190 190 198 199 195 205 210 205 211 216 213 210 207 206 211 210 206 201 200 200 206 210 211 212 213
311 307 306 300 291 284 271 274 264 255 240 218 202 187 176 173 175 177 180 202 209 206 211 214 221 222 225 215 209 211 212 212 204 203 208 209 209 209 212 215 217 218 221
Height
747 753 764 769 775 780 783 782 783 790 792 794 800 801 806 811 815 815 815 819 824 827 828 830 831 832 832 835 838 842 843 842 843 845 844 845 845 843 843 842 842 841 840
754 762 764 766 773 775 781 783 787 791 792 793 797 800 804 807 810 812 812 816 819 822 824 826 827 829 831 831 835 838 839 840 841 842 842 843 845 842 841 840 840 840 839
755 756 759 761 768 772 777 783 783 789 790 795 795 797 802 808 809 810 810 813 814 816 819 823 824 824 826 829 832 834 836 837 838 839 841 841 843 843 841 840 839 838 838
752 751 756 763 766 771 769 773 782 786 789 792 795 794 798 800 802 803 806 808 811 812 814 817 820 821 823 828 828 829 832 834 836 836 838 839 839 840 839 839 839 837 837
756 758 758 761 765 764 766 773 779 782 783 783 787 792 791 794 799 801 804 805 806 806 808 811 807 814 814 823 827 830 832 830 829 835 836 837 838 838 839 835 838 839 837
760 760 760 763 764 765 769 772 773 775 775 778 781 782 784 785 789 794 797 799 800 802 805 808 810 806 816 822 828 827 829 829 831 835 837 836 835 836 837 837 834 836 835
760 758 758 760 761 763 765 767 770 772 774 775 775 777 779 781 786 791 791 795 798 799 801 806 809 804 817 826 829 826 827 830 830 831 832 834 834 834 835 836 835 834 835
756 759 760 760 760 760 762 767 768 770 770 770 771 774 777 778 783 786 788 791 793 795 798 801 804 806 808 815 813 817 820 827 830 829 829 830 832 832 832 833 834 833 832
760 762 764 764 762 760 761 763 764 766 767 769 769 771 772 775 779 782 784 787 790 793 796 799 802 805 807 808 809 815 821 822 820 822 823 824 827 829 829 829 830 832 830
767 766 765 766 762 760 758 758 760 761 765 765 768 771 772 774 776 779 781 784 789 793 795 798 800 804 805 807 809 813 817 821 821 816 818 818 822 825 826 827 826 827 828
769 767 766 763 763 761 759 757 758 761 763 764 765 768 769 772 774 777 779 782 787 792 795 797 799 802 805 806 808 813 814 817 819 818 818 816 818 821 821 823 824 825 825
769 767 766 764 761 759 759 760 761 761 762 765 765 767 769 770 773 776 778 781 785 790 793 795 798 801 804 805 807 809 812 813 813 815 815 814 819 821 820 819 821 821 821
771 770 768 765 764 762 760 761 761 761 762 763 763 765 767 769 771 774 776 780 783 788 791 793 797 799 799 802 805 807 807 808 810 810 812 813 817 817 816 820 819 820 818
774 774 774 771 768 765 762 760 760 760 760 760 762 764 765 768 771 774 777 781 784 786 790 791 794 797 800 801 801 802 804 804 808 810 810 810 814 815 816 818 816 817 817
774 772 771 770 768 767 765 763 761 759 759 760 760 762 766 768 771 773 776 779 782 784 787 789 791 794 798 797 799 799 799 802 806 808 807 808 811 813 812 814 814 814 813
777 776 774 772 771 770 770 769 766 763 762 759 758 760 762 764 767 770 772 775 778 782 786 787 789 790 791 794 796 796 799 802 804 805 806 808 809 809 810 811 811 811 812
779 776 773 770 768 767 765 762 761 761 761 760 760 759 759 761 763 768 769 771 775 777 781 786 789 788 792 795 794 794 796 799 802 803 805 806 807 807 808 808 809 809 810
776 773 771 767 764 761 758 756 755 754 754 754 756 757 758 758 762 764 766 771 775 775 777 782 786 786 788 790 790 791 793 796 798 800 802 804 804 805 807 808 807 809 810
777 774 769 765 761 757 754 751 748 747 747 747 746 748 749 751 754 757 761 766 768 769 772 778 779 782 783 785 786 788 790 793 795 798 800 801 802 804 806 806 808 809 810
772 767 762 759 755 749 747 745 741 738 738 737 737 739 741 743 744 747 752 759 761 764 767 772 776 777 779 781 783 785 788 790 794 797 798 799 801 802 805 805 805 807 809
768 763 758 754 748 743 740 734 731 728 727 727 728 729 730 734 738 741 747 750 755 760 764 768 771 774 776 779 782 784 786 788 791 794 795 797 799 800 803 803 804 806 808
765 761 755 749 743 739 735 730 724 721 720 719 719 722 724 726 730 736 740 745 751 757 761 765 768 771 774 777 779 781 783 785 787 789 793 794 796 799 801 802 802 805 807
758 753 748 741 735 732 728 723 715 715 714 711 712 714 717 719 723 728 734 741 748 753 757 761 765 768 771 773 774 777 780 782 785 788 788 793 793 796 799 801 801 803 805
755 749 743 735 727 724 720 716 710 708 706 704 705 708 710 713 717 724 729 735 742 747 751 756 760 763 765 767 769 772 777 780 782 785 787 790 792 794 796 799 800 801 801
750 744 736 730 723 718 712 709 705 703 701 699 700 703 706 709 714 719 724 730 735 739 744 749 754 757 759 759 764 766 770 775 779 783 785 787 788 790 793 795 797 798 799
745 736 730 723 715 709 704 702 700 699 699 696 699 700 703 706 712 714 724 730 733 739 743 747 750 752 755 757 759 762 766 771 776 778 780 782 784 786 788 791 793 795 796